Location: Wells
(51.2093°N, 2.6446°W)
Time: 07:51:58
(UTC+01:00)

PCSat - Pass Details

Date: 09 March 2026
Orbit: 780 x 790 km, 67.1° (Epoch: 13 April)

Event Time Altitude Azimuth Distance (km) Brightness Sun altitude
Exits shadow 05:22:28 - 315° (NW) 3,184 12.4 -12.7°
Reaches altitude 10° 05:25:27 10° 334° (NNW) 2,365 11.9 -12.2°
Maximum altitude 05:28:53 17° 14° (NNE) 1,937 11.9 -11.7°
Drops below altitude 10° 05:32:19 10° 53° (NE) 2,363 13.0 -11.1°
Sets 05:35:39 0° 74° (ENE) 3,291 14.8 -10.6°
